Year,Month,Day,Hour,Minute,Value (Times are PST for temperature in C)
2008,05,18,00,00,20.60
2008,05,18,00,01,20.60
2008,05,18,00,02,20.60
2008,05,18,00,03,20.60
2008,05,18,00,04,20.50
2008,05,18,00,05,20.50
2008,05,18,00,06,20.50
2008,05,18,00,07,20.50
2008,05,18,00,08,20.50
2008,05,18,00,09,20.50
2008,05,18,00,10,20.50
2008,05,18,00,11,20.50
2008,05,18,00,12,20.50
2008,05,18,00,13,20.40
2008,05,18,00,14,20.40
2008,05,18,00,15,20.40
2008,05,18,00,16,20.40
2008,05,18,00,17,20.40
2008,05,18,00,18,20.40
2008,05,18,00,19,20.40
2008,05,18,00,20,20.40
2008,05,18,00,21,20.30
2008,05,18,00,22,20.30
2008,05,18,00,23,20.40
2008,05,18,00,24,20.40
2008,05,18,00,25,20.40
2008,05,18,00,26,20.40
2008,05,18,00,27,20.40
2008,05,18,00,28,20.40
2008,05,18,00,29,20.40
2008,05,18,00,30,20.30
2008,05,18,00,31,20.30
2008,05,18,00,32,20.30
2008,05,18,00,33,20.30
2008,05,18,00,34,20.30
2008,05,18,00,35,20.30
2008,05,18,00,36,20.20
2008,05,18,00,37,20.20
2008,05,18,00,38,20.20
2008,05,18,00,39,20.20
2008,05,18,00,40,20.20
2008,05,18,00,41,20.20
2008,05,18,00,42,20.20
2008,05,18,00,43,20.20
2008,05,18,00,44,20.20
2008,05,18,00,45,20.20
2008,05,18,00,46,20.20
2008,05,18,00,47,20.20
2008,05,18,00,48,20.20
2008,05,18,00,49,20.20
2008,05,18,00,50,20.20
2008,05,18,00,51,20.10
2008,05,18,00,52,20.10
2008,05,18,00,53,20.10
2008,05,18,00,54,20.10
2008,05,18,00,55,20.10
2008,05,18,00,56,20.00
2008,05,18,00,57,19.90
2008,05,18,00,58,19.70
2008,05,18,00,59,19.60
2008,05,18,01,00,19.30
2008,05,18,01,01,19.10
2008,05,18,01,02,18.90
2008,05,18,01,03,18.80
2008,05,18,01,04,18.20
2008,05,18,01,05,17.80
2008,05,18,01,06,17.60
2008,05,18,01,07,17.20
2008,05,18,01,08,16.90
2008,05,18,01,09,16.60
2008,05,18,01,10,16.40
2008,05,18,01,11,16.30
2008,05,18,01,12,16.20
2008,05,18,01,13,16.00
2008,05,18,01,14,15.90
2008,05,18,01,15,15.80
2008,05,18,01,16,15.80
2008,05,18,01,17,15.70
2008,05,18,01,18,15.70
2008,05,18,01,19,15.60
2008,05,18,01,20,15.60
2008,05,18,01,21,15.60
2008,05,18,01,22,15.60
2008,05,18,01,23,15.50
2008,05,18,01,24,15.50
2008,05,18,01,25,15.50
2008,05,18,01,26,15.50
2008,05,18,01,27,15.50
2008,05,18,01,28,15.50
2008,05,18,01,29,15.60
2008,05,18,01,30,15.60
2008,05,18,01,31,15.60
2008,05,18,01,32,15.60
2008,05,18,01,33,15.60
2008,05,18,01,34,15.70
2008,05,18,01,35,15.70
2008,05,18,01,36,15.70
2008,05,18,01,37,15.70
2008,05,18,01,38,15.60
2008,05,18,01,39,15.60
2008,05,18,01,40,15.60
2008,05,18,01,41,15.60
2008,05,18,01,42,15.60
2008,05,18,01,43,15.50
2008,05,18,01,44,15.50
2008,05,18,01,45,15.40
2008,05,18,01,46,15.30
2008,05,18,01,47,15.30
2008,05,18,01,48,15.20
2008,05,18,01,49,15.20
2008,05,18,01,50,15.20
2008,05,18,01,51,15.10
2008,05,18,01,52,15.10
2008,05,18,01,53,15.00
2008,05,18,01,54,15.00
2008,05,18,01,55,15.00
2008,05,18,01,56,15.00
2008,05,18,01,57,15.00
2008,05,18,01,58,15.10
2008,05,18,01,59,15.10
2008,05,18,02,00,15.10
2008,05,18,02,01,15.10
2008,05,18,02,02,15.10
2008,05,18,02,03,15.00
2008,05,18,02,04,15.00
2008,05,18,02,05,15.00
2008,05,18,02,06,15.00
2008,05,18,02,07,14.90
2008,05,18,02,08,14.90
2008,05,18,02,09,14.90
2008,05,18,02,10,14.90
2008,05,18,02,11,14.90
2008,05,18,02,12,14.90
2008,05,18,02,13,14.90
2008,05,18,02,14,14.90
2008,05,18,02,15,14.90
2008,05,18,02,16,14.90
2008,05,18,02,17,14.80
2008,05,18,02,18,14.80
2008,05,18,02,19,14.80
2008,05,18,02,20,14.80
2008,05,18,02,21,14.80
2008,05,18,02,22,14.80
2008,05,18,02,23,14.80
2008,05,18,02,24,14.80
2008,05,18,02,25,14.80
2008,05,18,02,26,14.70
2008,05,18,02,27,14.70
2008,05,18,02,28,14.60
2008,05,18,02,29,14.60
2008,05,18,02,30,14.50
2008,05,18,02,31,14.50
2008,05,18,02,32,14.50
2008,05,18,02,33,14.60
2008,05,18,02,34,14.60
2008,05,18,02,35,14.60
2008,05,18,02,36,14.60
2008,05,18,02,37,14.60
2008,05,18,02,38,14.60
2008,05,18,02,39,14.70
2008,05,18,02,40,14.70
2008,05,18,02,41,14.70
2008,05,18,02,42,14.70
2008,05,18,02,43,14.70
2008,05,18,02,44,14.70
2008,05,18,02,45,14.70
2008,05,18,02,46,14.70
2008,05,18,02,47,14.70
2008,05,18,02,48,14.70
2008,05,18,02,49,14.60
2008,05,18,02,50,14.60
2008,05,18,02,51,14.60
2008,05,18,02,52,14.50
2008,05,18,02,53,14.50
2008,05,18,02,54,14.50
2008,05,18,02,55,14.50
2008,05,18,02,56,14.50
2008,05,18,02,57,14.60
2008,05,18,02,58,14.60
2008,05,18,02,59,14.60
2008,05,18,03,00,14.70
2008,05,18,03,01,14.70
2008,05,18,03,02,14.80
2008,05,18,03,03,14.80
2008,05,18,03,04,14.80
2008,05,18,03,05,14.80
2008,05,18,03,06,14.80
2008,05,18,03,07,14.80
2008,05,18,03,08,14.80
2008,05,18,03,09,14.90
2008,05,18,03,10,14.90
2008,05,18,03,11,14.90
2008,05,18,03,12,14.90
2008,05,18,03,13,14.90
2008,05,18,03,14,14.90
2008,05,18,03,15,14.80
2008,05,18,03,16,14.80
2008,05,18,03,17,14.80
2008,05,18,03,18,14.80
2008,05,18,03,19,14.70
2008,05,18,03,20,14.70
2008,05,18,03,21,14.80
2008,05,18,03,22,14.80
2008,05,18,03,23,14.80
2008,05,18,03,24,14.80
2008,05,18,03,25,14.90
2008,05,18,03,26,14.90
2008,05,18,03,27,15.00
2008,05,18,03,28,15.10
2008,05,18,03,29,15.10
2008,05,18,03,30,15.20
2008,05,18,03,31,15.20
2008,05,18,03,32,15.30
2008,05,18,03,33,15.30
2008,05,18,03,34,15.30
2008,05,18,03,35,15.40
2008,05,18,03,36,15.50
2008,05,18,03,37,15.50
2008,05,18,03,38,15.60
2008,05,18,03,39,15.60
2008,05,18,03,40,15.60
2008,05,18,03,41,15.70
2008,05,18,03,42,15.70
2008,05,18,03,43,15.80
2008,05,18,03,44,15.80
2008,05,18,03,45,15.80
2008,05,18,03,46,15.80
2008,05,18,03,47,15.80
2008,05,18,03,48,15.80
2008,05,18,03,49,15.80
2008,05,18,03,50,15.80
2008,05,18,03,51,15.80
2008,05,18,03,52,15.80
2008,05,18,03,53,15.80
2008,05,18,03,54,15.80
2008,05,18,03,55,15.70
2008,05,18,03,56,15.70
2008,05,18,03,57,15.70
2008,05,18,03,58,15.60
2008,05,18,03,59,15.60
2008,05,18,04,00,15.50
2008,05,18,04,01,15.40
2008,05,18,04,02,15.40
2008,05,18,04,03,15.40
2008,05,18,04,04,15.40
2008,05,18,04,05,15.40
2008,05,18,04,06,15.50
2008,05,18,04,07,15.50
2008,05,18,04,08,15.50
2008,05,18,04,09,15.50
2008,05,18,04,10,15.40
2008,05,18,04,11,15.30
2008,05,18,04,12,15.30
2008,05,18,04,13,15.30
2008,05,18,04,14,15.30
2008,05,18,04,15,15.30
2008,05,18,04,16,15.30
2008,05,18,04,17,15.20
2008,05,18,04,18,15.20
2008,05,18,04,19,15.10
2008,05,18,04,20,15.10
2008,05,18,04,21,15.00
2008,05,18,04,22,14.90
2008,05,18,04,23,14.80
2008,05,18,04,24,14.80
2008,05,18,04,25,14.70
2008,05,18,04,26,14.70
2008,05,18,04,27,14.70
2008,05,18,04,28,14.60
2008,05,18,04,29,14.60
2008,05,18,04,30,14.60
2008,05,18,04,31,14.50
2008,05,18,04,32,14.50
2008,05,18,04,33,14.40
2008,05,18,04,34,14.40
2008,05,18,04,35,14.40
2008,05,18,04,36,14.30
2008,05,18,04,37,14.30
2008,05,18,04,38,14.30
2008,05,18,04,39,14.30
2008,05,18,04,40,14.20
2008,05,18,04,41,14.20
2008,05,18,04,42,14.20
2008,05,18,04,43,14.20
2008,05,18,04,44,14.20
2008,05,18,04,45,14.20
2008,05,18,04,46,14.20
2008,05,18,04,47,14.20
2008,05,18,04,48,14.20
2008,05,18,04,49,14.20
2008,05,18,04,50,14.20
2008,05,18,04,51,14.20
2008,05,18,04,52,14.20
2008,05,18,04,53,14.20
2008,05,18,04,54,14.20
2008,05,18,04,55,14.20
2008,05,18,04,56,14.20
2008,05,18,04,57,14.20
2008,05,18,04,58,14.20
2008,05,18,04,59,14.20
2008,05,18,05,00,14.20
2008,05,18,05,01,14.20
2008,05,18,05,02,14.20
2008,05,18,05,03,14.20
2008,05,18,05,04,14.10
2008,05,18,05,05,14.10
2008,05,18,05,06,14.10
2008,05,18,05,07,14.10
2008,05,18,05,08,14.10
2008,05,18,05,09,14.10
2008,05,18,05,10,14.10
2008,05,18,05,11,14.00
2008,05,18,05,12,14.00
2008,05,18,05,13,14.00
2008,05,18,05,14,14.00
2008,05,18,05,15,13.90
2008,05,18,05,16,13.90
2008,05,18,05,17,13.90
2008,05,18,05,18,13.90
2008,05,18,05,19,13.90
2008,05,18,05,20,13.80
2008,05,18,05,21,13.80
2008,05,18,05,22,13.80
2008,05,18,05,23,13.80
2008,05,18,05,24,13.80
2008,05,18,05,25,13.80
2008,05,18,05,26,13.70
2008,05,18,05,27,13.70
2008,05,18,05,28,13.70
2008,05,18,05,29,13.70
2008,05,18,05,30,13.70
2008,05,18,05,31,13.70
2008,05,18,05,32,13.70
2008,05,18,05,33,13.70
2008,05,18,05,34,13.70
2008,05,18,05,35,13.70
2008,05,18,05,36,13.70
2008,05,18,05,37,13.70
2008,05,18,05,38,13.70
2008,05,18,05,39,13.70
2008,05,18,05,40,13.70
2008,05,18,05,41,13.70
2008,05,18,05,42,13.80
2008,05,18,05,43,13.80
2008,05,18,05,44,13.80
2008,05,18,05,45,13.80
2008,05,18,05,46,13.80
2008,05,18,05,47,13.80
2008,05,18,05,48,13.80
2008,05,18,05,49,13.90
2008,05,18,05,50,13.90
2008,05,18,05,51,14.00
2008,05,18,05,52,14.00
2008,05,18,05,53,14.00
2008,05,18,05,54,14.10
2008,05,18,05,55,14.10
2008,05,18,05,56,14.10
2008,05,18,05,57,14.20
2008,05,18,05,58,14.20
2008,05,18,05,59,14.20
2008,05,18,06,00,14.20
2008,05,18,06,01,14.30
2008,05,18,06,02,14.40
2008,05,18,06,03,14.40
2008,05,18,06,04,14.50
2008,05,18,06,05,14.50
2008,05,18,06,06,14.60
2008,05,18,06,07,14.60
2008,05,18,06,08,14.60
2008,05,18,06,09,14.70
2008,05,18,06,10,14.70
2008,05,18,06,11,14.70
2008,05,18,06,12,14.80
2008,05,18,06,13,14.80
2008,05,18,06,14,14.80
2008,05,18,06,15,14.80
2008,05,18,06,16,14.80
2008,05,18,06,17,14.80
2008,05,18,06,18,14.90
2008,05,18,06,19,14.90
2008,05,18,06,20,14.90
2008,05,18,06,21,14.90
2008,05,18,06,22,14.90
2008,05,18,06,23,15.00
2008,05,18,06,24,15.00
2008,05,18,06,25,15.00
2008,05,18,06,26,15.10
2008,05,18,06,27,15.10
2008,05,18,06,28,15.20
2008,05,18,06,29,15.20
2008,05,18,06,30,15.30
2008,05,18,06,31,15.30
2008,05,18,06,32,15.30
2008,05,18,06,33,15.30
2008,05,18,06,34,15.30
2008,05,18,06,35,15.30
2008,05,18,06,36,15.30
2008,05,18,06,37,15.30
2008,05,18,06,38,15.30
2008,05,18,06,39,15.30
2008,05,18,06,40,15.30
2008,05,18,06,41,15.30
2008,05,18,06,42,15.30
2008,05,18,06,43,15.30
2008,05,18,06,44,15.30
2008,05,18,06,45,15.40
2008,05,18,06,46,15.40
2008,05,18,06,47,15.40
2008,05,18,06,48,15.50
2008,05,18,06,49,15.50
2008,05,18,06,50,15.60
2008,05,18,06,51,15.60
2008,05,18,06,52,15.70
2008,05,18,06,53,15.70
2008,05,18,06,54,15.80
2008,05,18,06,55,15.80
2008,05,18,06,56,15.90
2008,05,18,06,57,15.90
2008,05,18,06,58,15.90
2008,05,18,06,59,16.00
2008,05,18,07,00,16.10
2008,05,18,07,01,16.10
2008,05,18,07,02,16.10
2008,05,18,07,03,16.10
2008,05,18,07,04,16.10
2008,05,18,07,05,16.10
2008,05,18,07,06,16.20
2008,05,18,07,07,16.30
2008,05,18,07,08,16.40
2008,05,18,07,09,16.40
2008,05,18,07,10,16.50
2008,05,18,07,11,16.60
2008,05,18,07,12,16.60
2008,05,18,07,13,16.60
2008,05,18,07,14,16.60
2008,05,18,07,15,16.60
2008,05,18,07,16,16.60
2008,05,18,07,17,16.50
2008,05,18,07,18,16.50
2008,05,18,07,19,16.60
2008,05,18,07,20,16.70
2008,05,18,07,21,16.70
2008,05,18,07,22,16.70
2008,05,18,07,23,16.80
2008,05,18,07,24,16.90
2008,05,18,07,25,17.00
2008,05,18,07,26,17.10
2008,05,18,07,27,17.20
2008,05,18,07,28,17.30
2008,05,18,07,29,17.20
2008,05,18,07,30,17.20
2008,05,18,07,31,17.20
2008,05,18,07,32,17.20
2008,05,18,07,33,17.10
2008,05,18,07,34,17.10
2008,05,18,07,35,17.00
2008,05,18,07,36,17.00
2008,05,18,07,37,16.90
2008,05,18,07,38,16.70
2008,05,18,07,39,16.70
2008,05,18,07,40,16.60
2008,05,18,07,41,16.40
2008,05,18,07,42,16.20
2008,05,18,07,43,16.00
2008,05,18,07,44,15.80
2008,05,18,07,45,15.60
2008,05,18,07,46,15.60
2008,05,18,07,47,15.50
2008,05,18,07,48,15.40
2008,05,18,07,49,15.20
2008,05,18,07,50,15.00
2008,05,18,07,51,14.80
2008,05,18,07,52,14.80
2008,05,18,07,53,14.80
2008,05,18,07,54,14.90
2008,05,18,07,55,14.90
2008,05,18,07,56,14.90
2008,05,18,07,57,14.70
2008,05,18,07,58,14.60
2008,05,18,07,59,14.50
2008,05,18,08,00,14.40
2008,05,18,08,01,14.20
2008,05,18,08,02,14.10
2008,05,18,08,03,13.90
2008,05,18,08,04,13.70
2008,05,18,08,05,13.60
2008,05,18,08,06,13.50
2008,05,18,08,07,13.40
2008,05,18,08,08,13.20
2008,05,18,08,09,13.00
2008,05,18,08,10,12.90
2008,05,18,08,11,12.90
2008,05,18,08,12,12.90
2008,05,18,08,13,12.70
2008,05,18,08,14,12.50
2008,05,18,08,15,12.40
2008,05,18,08,16,12.30
2008,05,18,08,17,12.30
2008,05,18,08,18,12.30
2008,05,18,08,19,12.40
2008,05,18,08,20,12.60
2008,05,18,08,21,12.70
2008,05,18,08,22,12.80
2008,05,18,08,23,12.80
2008,05,18,08,24,12.90
2008,05,18,08,25,13.00
2008,05,18,08,26,13.00
2008,05,18,08,27,13.20
2008,05,18,08,28,13.30
2008,05,18,08,29,13.50
2008,05,18,08,30,13.60
2008,05,18,08,31,13.70
2008,05,18,08,32,13.80
2008,05,18,08,33,14.00
2008,05,18,08,34,14.10
2008,05,18,08,35,14.10
2008,05,18,08,36,14.30
2008,05,18,08,37,14.40
2008,05,18,08,38,14.40
2008,05,18,08,39,14.50
2008,05,18,08,40,14.70
2008,05,18,08,41,14.80
2008,05,18,08,42,14.90
2008,05,18,08,43,14.90
2008,05,18,08,44,15.00
2008,05,18,08,45,15.00
2008,05,18,08,46,15.00
2008,05,18,08,47,15.00
2008,05,18,08,48,15.00
2008,05,18,08,49,15.00
2008,05,18,08,50,15.10
2008,05,18,08,51,15.20
2008,05,18,08,52,15.20
2008,05,18,08,53,15.20
2008,05,18,08,54,15.20
2008,05,18,08,55,15.30
2008,05,18,08,56,15.30
2008,05,18,08,57,15.30
2008,05,18,08,58,15.30
2008,05,18,08,59,15.40
2008,05,18,09,00,15.40
2008,05,18,09,01,15.40
2008,05,18,09,02,15.40
2008,05,18,09,03,15.40
2008,05,18,09,04,15.60
2008,05,18,09,05,15.60
2008,05,18,09,06,16.00
2008,05,18,09,07,16.10
2008,05,18,09,08,16.20
2008,05,18,09,09,16.30
2008,05,18,09,10,16.40
2008,05,18,09,11,16.60
2008,05,18,09,12,16.70
2008,05,18,09,13,16.80
2008,05,18,09,14,16.80
2008,05,18,09,15,16.90
2008,05,18,09,16,17.00
2008,05,18,09,17,17.10
2008,05,18,09,18,17.10
2008,05,18,09,19,17.20
2008,05,18,09,20,17.30
2008,05,18,09,21,17.30
2008,05,18,09,22,17.40
2008,05,18,09,23,17.40
2008,05,18,09,24,17.40
2008,05,18,09,25,17.40
2008,05,18,09,26,17.40
2008,05,18,09,27,17.40
2008,05,18,09,28,17.40
2008,05,18,09,29,17.50
2008,05,18,09,30,17.60
2008,05,18,09,31,17.80
2008,05,18,09,32,17.90
2008,05,18,09,33,17.90
2008,05,18,09,34,18.10
2008,05,18,09,35,18.20
2008,05,18,09,36,18.30
2008,05,18,09,37,18.50
2008,05,18,09,38,18.50
2008,05,18,09,39,18.60
2008,05,18,09,40,18.80
2008,05,18,09,41,18.80
2008,05,18,09,42,18.80
2008,05,18,09,43,18.90
2008,05,18,09,44,18.80
2008,05,18,09,45,18.80
2008,05,18,09,46,18.80
2008,05,18,09,47,18.80
2008,05,18,09,48,18.80
2008,05,18,09,49,18.80
2008,05,18,09,50,19.00
2008,05,18,09,51,19.10
2008,05,18,09,52,19.10
2008,05,18,09,53,19.10
2008,05,18,09,54,19.10
2008,05,18,09,55,19.10
2008,05,18,09,56,19.20
2008,05,18,09,57,19.30
2008,05,18,09,58,19.40
2008,05,18,09,59,19.50
2008,05,18,10,00,19.50
2008,05,18,10,01,19.60
2008,05,18,10,02,19.60
2008,05,18,10,03,19.60
2008,05,18,10,04,19.60
2008,05,18,10,05,19.50
2008,05,18,10,06,19.30
2008,05,18,10,07,19.10
2008,05,18,10,08,19.10
2008,05,18,10,09,19.10
2008,05,18,10,10,19.10
2008,05,18,10,11,19.10
2008,05,18,10,12,19.10
2008,05,18,10,13,19.20
2008,05,18,10,14,19.30
2008,05,18,10,15,19.40
2008,05,18,10,16,19.40
2008,05,18,10,17,19.20
2008,05,18,10,18,19.10
2008,05,18,10,19,19.10
2008,05,18,10,20,19.00
2008,05,18,10,21,18.90
2008,05,18,10,22,18.70
2008,05,18,10,23,18.60
2008,05,18,10,24,18.40
2008,05,18,10,25,18.50
2008,05,18,10,26,18.60
2008,05,18,10,27,18.70
2008,05,18,10,28,18.80
2008,05,18,10,29,18.90
2008,05,18,10,30,18.90
2008,05,18,10,31,18.90
2008,05,18,10,32,18.90
2008,05,18,10,33,18.90
2008,05,18,10,34,18.90
2008,05,18,10,35,19.00
2008,05,18,10,36,19.10
2008,05,18,10,37,19.20
2008,05,18,10,38,19.40
2008,05,18,10,39,19.40
2008,05,18,10,40,19.40
2008,05,18,10,41,19.40
2008,05,18,10,42,19.40
2008,05,18,10,43,19.60
2008,05,18,10,44,19.70
2008,05,18,10,45,19.80
2008,05,18,10,46,19.50
2008,05,18,10,47,19.40
2008,05,18,10,48,19.10
2008,05,18,10,49,18.90
2008,05,18,10,50,18.90
2008,05,18,10,51,18.80
2008,05,18,10,52,18.80
2008,05,18,10,53,18.70
2008,05,18,10,54,18.70
2008,05,18,10,55,18.50
2008,05,18,10,56,18.50
2008,05,18,10,57,18.50
2008,05,18,10,58,18.50
2008,05,18,10,59,18.00
2008,05,18,11,00,17.80
2008,05,18,11,01,17.70
2008,05,18,11,02,17.60
2008,05,18,11,03,17.50
2008,05,18,11,04,17.50
2008,05,18,11,05,17.50
2008,05,18,11,06,17.40
2008,05,18,11,07,17.30
2008,05,18,11,08,17.20
2008,05,18,11,09,17.00
2008,05,18,11,10,16.80
2008,05,18,11,11,16.40
2008,05,18,11,12,16.10
2008,05,18,11,13,16.10
2008,05,18,11,14,16.10
2008,05,18,11,15,16.10
2008,05,18,11,16,16.10
2008,05,18,11,17,16.20
2008,05,18,11,18,16.30
2008,05,18,11,19,16.20
2008,05,18,11,20,16.10
2008,05,18,11,21,16.10
2008,05,18,11,22,16.10
2008,05,18,11,23,16.10
2008,05,18,11,24,16.10
2008,05,18,11,25,16.10
2008,05,18,11,26,16.10
2008,05,18,11,27,16.10
2008,05,18,11,28,16.10
2008,05,18,11,29,16.10
2008,05,18,11,30,16.20
2008,05,18,11,31,16.30
2008,05,18,11,32,16.30
2008,05,18,11,33,16.30
2008,05,18,11,34,16.20
2008,05,18,11,35,16.20
2008,05,18,11,36,16.20
2008,05,18,11,37,16.30
2008,05,18,11,38,16.50
2008,05,18,11,39,16.60
2008,05,18,11,40,16.80
2008,05,18,11,41,17.00
2008,05,18,11,42,17.10
2008,05,18,11,43,17.20
2008,05,18,11,44,17.20
2008,05,18,11,45,17.00
2008,05,18,11,46,17.00
2008,05,18,11,47,16.80
2008,05,18,11,48,16.60
2008,05,18,11,49,16.20
2008,05,18,11,50,16.10
2008,05,18,11,51,16.10
2008,05,18,11,52,15.90
2008,05,18,11,53,15.80
2008,05,18,11,54,15.70
2008,05,18,11,55,15.60
2008,05,18,11,56,15.50
2008,05,18,11,57,15.60
2008,05,18,11,58,15.60
2008,05,18,11,59,15.60
2008,05,18,12,00,15.80
2008,05,18,12,01,16.00
2008,05,18,12,02,16.20
2008,05,18,12,03,16.30
2008,05,18,12,04,16.40
2008,05,18,12,05,16.50
2008,05,18,12,06,16.60
2008,05,18,12,07,16.70
2008,05,18,12,08,16.70
2008,05,18,12,09,16.70
2008,05,18,12,10,16.60
2008,05,18,12,11,16.50
2008,05,18,12,12,16.40
2008,05,18,12,13,16.50
2008,05,18,12,14,16.60
2008,05,18,12,15,16.60
2008,05,18,12,16,16.70
2008,05,18,12,17,16.50
2008,05,18,12,18,16.20
2008,05,18,12,19,15.90
2008,05,18,12,20,15.70
2008,05,18,12,21,15.50
2008,05,18,12,22,15.20
2008,05,18,12,23,15.00
2008,05,18,12,24,14.80
2008,05,18,12,25,14.70
2008,05,18,12,26,14.80
2008,05,18,12,27,14.80
2008,05,18,12,28,14.80
2008,05,18,12,29,15.00
2008,05,18,12,30,15.20
2008,05,18,12,31,15.40
2008,05,18,12,32,15.50
2008,05,18,12,33,15.60
2008,05,18,12,34,15.70
2008,05,18,12,35,15.70
2008,05,18,12,36,15.90
2008,05,18,12,37,15.90
2008,05,18,12,38,15.90
2008,05,18,12,39,15.90
2008,05,18,12,40,15.90
2008,05,18,12,41,15.90
2008,05,18,12,42,16.10
2008,05,18,12,43,16.20
2008,05,18,12,44,16.30
2008,05,18,12,45,16.50
2008,05,18,12,46,16.60
2008,05,18,12,47,16.60
2008,05,18,12,48,16.50
2008,05,18,12,49,16.30
2008,05,18,12,50,16.20
2008,05,18,12,51,16.10
2008,05,18,12,52,16.10
2008,05,18,12,53,16.10
2008,05,18,12,54,16.10
2008,05,18,12,55,16.10
2008,05,18,12,56,16.10
2008,05,18,12,57,16.10
2008,05,18,12,58,16.20
2008,05,18,12,59,16.20
2008,05,18,13,00,16.20
2008,05,18,13,01,16.30
2008,05,18,13,02,16.30
2008,05,18,13,03,16.40
2008,05,18,13,04,16.50
2008,05,18,13,05,16.60
2008,05,18,13,06,16.70
2008,05,18,13,07,16.80
2008,05,18,13,08,16.90
2008,05,18,13,09,16.90
2008,05,18,13,10,16.90
2008,05,18,13,11,17.00
2008,05,18,13,12,17.00
2008,05,18,13,13,17.10
2008,05,18,13,14,17.30
2008,05,18,13,15,17.30
2008,05,18,13,16,17.30
2008,05,18,13,17,17.30
2008,05,18,13,18,17.30
2008,05,18,13,19,17.40
2008,05,18,13,20,17.40
2008,05,18,13,21,17.40
2008,05,18,13,22,17.50
2008,05,18,13,23,17.50
2008,05,18,13,24,17.40
2008,05,18,13,25,17.40
2008,05,18,13,26,17.40
2008,05,18,13,27,17.40
2008,05,18,13,28,17.40
2008,05,18,13,29,17.50
2008,05,18,13,30,17.70
2008,05,18,13,31,17.80
2008,05,18,13,32,17.90
2008,05,18,13,33,18.20
2008,05,18,13,34,18.30
2008,05,18,13,35,18.50
2008,05,18,13,36,18.40
2008,05,18,13,37,18.30
2008,05,18,13,38,18.20
2008,05,18,13,39,18.30
2008,05,18,13,40,18.30
2008,05,18,13,41,18.00
2008,05,18,13,42,17.90
2008,05,18,13,43,17.80
2008,05,18,13,44,17.90
2008,05,18,13,45,18.10
2008,05,18,13,46,18.20
2008,05,18,13,47,18.10
2008,05,18,13,48,18.10
2008,05,18,13,49,17.90
2008,05,18,13,50,17.90
2008,05,18,13,51,17.90
2008,05,18,13,52,17.90
2008,05,18,13,53,17.90
2008,05,18,13,54,17.70
2008,05,18,13,55,17.50
2008,05,18,13,56,17.30
2008,05,18,13,57,17.10
2008,05,18,13,58,16.90
2008,05,18,13,59,16.90
2008,05,18,14,00,16.80
2008,05,18,14,01,16.90
2008,05,18,14,02,17.00
2008,05,18,14,03,17.00
2008,05,18,14,04,17.00
2008,05,18,14,05,17.00
2008,05,18,14,06,16.80
2008,05,18,14,07,16.40
2008,05,18,14,08,16.20
2008,05,18,14,09,16.20
2008,05,18,14,10,16.20
2008,05,18,14,11,16.10
2008,05,18,14,12,16.10
2008,05,18,14,13,16.10
2008,05,18,14,14,16.20
2008,05,18,14,15,16.10
2008,05,18,14,16,16.10
2008,05,18,14,17,16.10
2008,05,18,14,18,16.20
2008,05,18,14,19,16.40
2008,05,18,14,20,16.60
2008,05,18,14,21,16.60
2008,05,18,14,22,16.30
2008,05,18,14,23,16.30
2008,05,18,14,24,16.50
2008,05,18,14,25,16.70
2008,05,18,14,26,17.00
2008,05,18,14,27,17.20
2008,05,18,14,28,17.40
2008,05,18,14,29,17.50
2008,05,18,14,30,17.50
2008,05,18,14,31,17.60
2008,05,18,14,32,17.50
2008,05,18,14,33,17.50
2008,05,18,14,34,17.50
2008,05,18,14,35,17.50
2008,05,18,14,36,17.30
2008,05,18,14,37,17.20
2008,05,18,14,38,16.90
2008,05,18,14,39,16.80
2008,05,18,14,40,16.90
2008,05,18,14,41,16.80
2008,05,18,14,42,16.80
2008,05,18,14,43,16.90
2008,05,18,14,44,16.90
2008,05,18,14,45,16.80
2008,05,18,14,46,16.90
2008,05,18,14,47,17.00
2008,05,18,14,48,17.00
2008,05,18,14,49,16.90
2008,05,18,14,50,16.70
2008,05,18,14,51,16.70
2008,05,18,14,52,16.70
2008,05,18,14,53,16.80
2008,05,18,14,54,16.80
2008,05,18,14,55,17.00
2008,05,18,14,56,17.20
2008,05,18,14,57,17.40
2008,05,18,14,58,17.60
2008,05,18,14,59,17.80
2008,05,18,15,00,17.90
2008,05,18,15,01,18.10
2008,05,18,15,02,18.20
2008,05,18,15,03,18.20
2008,05,18,15,04,18.10
2008,05,18,15,05,18.10
2008,05,18,15,06,18.10
2008,05,18,15,07,18.00
2008,05,18,15,08,17.70
2008,05,18,15,09,17.50
2008,05,18,15,10,17.30
2008,05,18,15,11,17.30
2008,05,18,15,12,17.30
2008,05,18,15,13,17.30
2008,05,18,15,14,17.30
2008,05,18,15,15,17.40
2008,05,18,15,16,17.40
2008,05,18,15,17,17.30
2008,05,18,15,18,17.10
2008,05,18,15,19,17.00
2008,05,18,15,20,17.00
2008,05,18,15,21,17.00
2008,05,18,15,22,17.10
2008,05,18,15,23,17.30
2008,05,18,15,24,17.50
2008,05,18,15,25,17.70
2008,05,18,15,26,17.70
2008,05,18,15,27,17.70
2008,05,18,15,28,17.80
2008,05,18,15,29,17.90
2008,05,18,15,30,18.10
2008,05,18,15,31,18.40
2008,05,18,15,32,18.50
2008,05,18,15,33,18.70
2008,05,18,15,34,18.90
2008,05,18,15,35,19.10
2008,05,18,15,36,19.10
2008,05,18,15,37,18.90
2008,05,18,15,38,18.60
2008,05,18,15,39,18.30
2008,05,18,15,40,18.30
2008,05,18,15,41,18.60
2008,05,18,15,42,18.80
2008,05,18,15,43,19.00
2008,05,18,15,44,19.20
2008,05,18,15,45,19.40
2008,05,18,15,46,19.50
2008,05,18,15,47,19.50
2008,05,18,15,48,19.50
2008,05,18,15,49,19.40
2008,05,18,15,50,19.30
2008,05,18,15,51,19.10
2008,05,18,15,52,19.10
2008,05,18,15,53,19.20
2008,05,18,15,54,19.40
2008,05,18,15,55,19.40
2008,05,18,15,56,19.40
2008,05,18,15,57,19.50
2008,05,18,15,58,19.60
2008,05,18,15,59,19.90
2008,05,18,16,00,20.10
2008,05,18,16,01,20.20
2008,05,18,16,02,20.40
2008,05,18,16,03,20.60
2008,05,18,16,04,20.80
2008,05,18,16,05,21.00
2008,05,18,16,06,21.20
2008,05,18,16,07,21.30
2008,05,18,16,08,21.40
2008,05,18,16,09,21.50
2008,05,18,16,10,21.80
2008,05,18,16,11,22.10
2008,05,18,16,12,22.30
2008,05,18,16,13,22.60
2008,05,18,16,14,22.70
2008,05,18,16,15,22.70
2008,05,18,16,16,22.70
2008,05,18,16,17,22.80
2008,05,18,16,18,22.80
2008,05,18,16,19,22.80
2008,05,18,16,20,22.90
2008,05,18,16,21,23.00
2008,05,18,16,22,23.10
2008,05,18,16,23,23.20
2008,05,18,16,24,23.20
2008,05,18,16,25,23.20
2008,05,18,16,26,23.20
2008,05,18,16,27,23.20
2008,05,18,16,28,23.20
2008,05,18,16,29,23.20
2008,05,18,16,30,23.20
2008,05,18,16,31,23.30
2008,05,18,16,32,23.30
2008,05,18,16,33,23.40
2008,05,18,16,34,23.50
2008,05,18,16,35,23.60
2008,05,18,16,36,23.80
2008,05,18,16,37,23.90
2008,05,18,16,38,24.00
2008,05,18,16,39,24.10
2008,05,18,16,40,24.10
2008,05,18,16,41,24.10
2008,05,18,16,42,24.30
2008,05,18,16,43,24.40
2008,05,18,16,44,24.50
2008,05,18,16,45,24.60
2008,05,18,16,46,24.50
2008,05,18,16,47,24.50
2008,05,18,16,48,24.50
2008,05,18,16,49,24.50
2008,05,18,16,50,24.60
2008,05,18,16,51,24.60
2008,05,18,16,52,24.70
2008,05,18,16,53,24.80
2008,05,18,16,54,24.90
2008,05,18,16,55,25.10
2008,05,18,16,56,25.30
2008,05,18,16,57,25.30
2008,05,18,16,58,25.30
2008,05,18,16,59,25.30
2008,05,18,17,00,25.20
2008,05,18,17,01,25.00
2008,05,18,17,02,24.90
2008,05,18,17,03,24.70
2008,05,18,17,04,24.70
2008,05,18,17,05,24.60
2008,05,18,17,06,24.70
2008,05,18,17,07,24.70
2008,05,18,17,08,24.60
2008,05,18,17,09,24.50
2008,05,18,17,10,24.40
2008,05,18,17,11,24.40
2008,05,18,17,12,24.40
2008,05,18,17,13,24.50
2008,05,18,17,14,24.60
2008,05,18,17,15,24.80
2008,05,18,17,16,25.00
2008,05,18,17,17,25.20
2008,05,18,17,18,25.30
2008,05,18,17,19,25.40